TimeCDT,TemperatureF,Dew PointF,Humidity,Sea Level PressureIn,VisibilityMPH,Wind Direction,Wind SpeedMPH,Gust SpeedMPH,PrecipitationIn,Events,Conditions,WindDirDegrees,DateUTC
12:15 AM,68.0,68.0,100,30.06,10.0,Calm,Calm,-,N/A,,Overcast,0,2013-07-05 05:15:00
12:35 AM,68.0,68.0,100,30.06,10.0,Calm,Calm,-,N/A,,Overcast,0,2013-07-05 05:35:00
12:55 AM,69.8,69.8,100,30.06,10.0,ESE,3.5,-,N/A,,Overcast,120,2013-07-05 05:55:00
1:15 AM,69.8,69.8,100,30.06,10.0,SSE,4.6,-,N/A,,Overcast,150,2013-07-05 06:15:00
1:35 AM,69.8,69.8,100,30.05,10.0,SSE,3.5,-,N/A,,Overcast,160,2013-07-05 06:35:00
1:55 AM,69.8,69.8,100,30.05,10.0,SSE,4.6,-,N/A,Rain,Rain,160,2013-07-05 06:55:00
2:15 AM,69.8,69.8,100,30.05,10.0,South,4.6,-,N/A,,Overcast,180,2013-07-05 07:15:00
2:35 AM,69.8,69.8,100,30.05,10.0,SSE,3.5,-,N/A,,Overcast,160,2013-07-05 07:35:00
2:55 AM,69.8,69.8,100,30.05,10.0,SSE,4.6,-,N/A,,Overcast,160,2013-07-05 07:55:00
3:15 AM,69.8,69.8,100,30.05,10.0,SSE,4.6,-,N/A,,Overcast,160,2013-07-05 08:15:00
3:35 AM,69.8,69.8,100,30.05,10.0,SSE,5.8,-,N/A,,Overcast,160,2013-07-05 08:35:00
3:55 AM,69.8,69.8,100,30.06,10.0,South,4.6,-,N/A,,Overcast,170,2013-07-05 08:55:00
4:15 AM,69.8,69.8,100,30.06,10.0,South,4.6,-,N/A,,Overcast,170,2013-07-05 09:15:00
4:35 AM,69.8,69.8,100,30.06,10.0,South,3.5,-,N/A,,Overcast,170,2013-07-05 09:35:00
4:55 AM,69.8,69.8,100,30.07,10.0,South,4.6,-,N/A,,Overcast,180,2013-07-05 09:55:00
5:15 AM,69.8,69.8,100,30.07,10.0,Calm,Calm,-,N/A,,Overcast,0,2013-07-05 10:15:00
5:35 AM,69.8,69.8,100,30.07,10.0,South,3.5,-,N/A,,Overcast,170,2013-07-05 10:35:00
5:55 AM,69.8,69.8,100,30.08,10.0,South,5.8,-,N/A,,Overcast,170,2013-07-05 10:55:00
6:15 AM,69.8,69.8,100,30.08,10.0,SSE,4.6,-,N/A,,Overcast,150,2013-07-05 11:15:00
6:35 AM,69.8,69.8,100,30.09,10.0,South,5.8,-,N/A,,Overcast,170,2013-07-05 11:35:00
6:55 AM,69.8,69.8,100,30.09,7.0,South,5.8,-,N/A,Rain,Rain,170,2013-07-05 11:55:00
7:15 AM,71.6,71.6,100,30.09,10.0,SSE,4.6,-,N/A,,Overcast,160,2013-07-05 12:15:00
7:35 AM,71.6,71.6,100,30.10,10.0,SSE,4.6,-,N/A,,Overcast,160,2013-07-05 12:35:00
7:55 AM,71.6,71.6,100,30.10,10.0,South,5.8,-,N/A,,Overcast,170,2013-07-05 12:55:00
8:15 AM,71.6,71.6,100,30.11,10.0,SSE,5.8,-,N/A,,Overcast,160,2013-07-05 13:15:00
8:35 AM,71.6,71.6,100,30.12,10.0,South,4.6,-,N/A,,Overcast,180,2013-07-05 13:35:00
8:55 AM,71.6,71.6,100,30.12,10.0,SSE,4.6,-,N/A,,Overcast,160,2013-07-05 13:55:00
9:15 AM,71.6,71.6,100,30.12,10.0,South,4.6,-,N/A,,Overcast,170,2013-07-05 14:15:00
9:35 AM,73.4,71.6,94,30.12,10.0,South,3.5,-,N/A,,Overcast,170,2013-07-05 14:35:00
9:55 AM,73.4,71.6,94,30.12,10.0,South,3.5,-,N/A,,Overcast,180,2013-07-05 14:55:00
10:15 AM,73.4,71.6,94,30.13,10.0,South,5.8,-,N/A,,Overcast,190,2013-07-05 15:15:00
10:35 AM,75.2,71.6,89,30.13,10.0,SSE,6.9,-,N/A,,Overcast,160,2013-07-05 15:35:00
10:55 AM,73.4,71.6,94,30.12,10.0,SSE,11.5,-,N/A,,Overcast,160,2013-07-05 15:55:00
11:15 AM,73.4,73.4,100,30.13,7.0,SSE,6.9,-,N/A,,Drizzle,150,2013-07-05 16:15:00
11:35 AM,73.4,73.4,100,30.13,10.0,SE,10.4,-,N/A,,Overcast,140,2013-07-05 16:35:00
11:55 AM,73.4,71.6,94,30.13,10.0,SE,10.4,17.3,N/A,Rain,Light Rain,140,2013-07-05 16:55:00
12:15 PM,73.4,71.6,94,30.13,10.0,SE,11.5,-,N/A,Rain,Light Rain,140,2013-07-05 17:15:00
12:35 PM,73.4,73.4,100,30.13,10.0,SSE,8.1,-,N/A,Rain,Light Rain,150,2013-07-05 17:35:00
12:55 PM,73.4,71.6,94,30.13,10.0,SSE,8.1,-,N/A,,Overcast,160,2013-07-05 17:55:00
1:15 PM,73.4,73.4,100,30.12,10.0,SSE,5.8,-,N/A,Rain,Light Rain,160,2013-07-05 18:15:00
1:35 PM,73.4,73.4,100,30.13,10.0,SSE,5.8,-,N/A,,Overcast,150,2013-07-05 18:35:00
1:55 PM,75.2,73.4,94,30.12,10.0,SSE,8.1,-,N/A,Rain,Light Rain,150,2013-07-05 18:55:00
2:15 PM,73.4,73.4,100,30.11,10.0,SSE,6.9,-,N/A,Rain,Light Rain,160,2013-07-05 19:15:00
2:35 PM,73.4,73.4,100,30.11,10.0,SSE,5.8,-,N/A,,Overcast,150,2013-07-05 19:35:00
2:55 PM,73.4,73.4,100,30.10,10.0,SSE,5.8,-,N/A,Rain,Rain,150,2013-07-05 19:55:00
3:15 PM,73.4,73.4,100,30.10,5.0,SSE,5.8,-,N/A,Rain,Rain,160,2013-07-05 20:15:00
3:35 PM,73.4,73.4,100,30.10,7.0,South,5.8,-,N/A,Rain,Rain,170,2013-07-05 20:35:00
3:55 PM,73.4,73.4,100,30.10,10.0,SSE,3.5,-,N/A,,Overcast,160,2013-07-05 20:55:00
4:15 PM,73.4,73.4,100,30.10,10.0,Calm,Calm,-,N/A,Rain,Light Rain,0,2013-07-05 21:15:00
4:35 PM,73.4,73.4,100,30.09,10.0,Calm,Calm,-,N/A,,Overcast,0,2013-07-05 21:35:00
4:55 PM,73.4,73.4,100,30.09,10.0,Calm,Calm,-,N/A,,Overcast,0,2013-07-05 21:55:00
5:15 PM,71.6,71.6,100,30.09,2.0,South,13.8,17.3,N/A,Rain,Heavy Rain,190,2013-07-05 22:15:00
5:35 PM,71.6,69.8,94,30.08,4.0,South,10.4,-,N/A,Rain,Heavy Rain,180,2013-07-05 22:35:00
5:55 PM,71.6,71.6,100,30.07,10.0,SSE,5.8,-,N/A,,Mostly Cloudy,160,2013-07-05 22:55:00
6:15 PM,71.6,71.6,100,30.07,10.0,Calm,Calm,-,N/A,,Clear,0,2013-07-05 23:15:00
6:35 PM,73.4,71.6,94,30.08,10.0,SSE,4.6,-,N/A,,Scattered Clouds,160,2013-07-05 23:35:00
6:55 PM,73.4,71.6,94,30.09,10.0,Calm,Calm,-,N/A,,Drizzle,0,2013-07-05 23:55:00
7:15 PM,71.6,71.6,100,30.09,10.0,SE,3.5,-,N/A,Rain,Rain,130,2013-07-06 00:15:00
7:35 PM,71.6,71.6,100,30.10,5.0,SSE,5.8,-,N/A,Rain,Rain,160,2013-07-06 00:35:00
7:55 PM,71.6,71.6,100,30.10,4.0,ESE,3.5,-,N/A,Rain,Rain,110,2013-07-06 00:55:00
8:15 PM,71.6,71.6,100,30.10,7.0,East,4.6,-,N/A,Rain,Rain,90,2013-07-06 01:15:00
8:35 PM,71.6,71.6,100,30.09,10.0,SE,5.8,-,N/A,Rain,Rain,130,2013-07-06 01:35:00
8:55 PM,69.8,69.8,100,30.11,1.2,SE,9.2,18.4,N/A,Rain,Heavy Rain,130,2013-07-06 01:55:00
9:15 PM,69.8,69.8,100,30.12,1.5,SW,6.9,-,N/A,Rain,Heavy Rain,220,2013-07-06 02:15:00
9:35 PM,69.8,69.8,100,30.11,2.5,East,3.5,-,N/A,Rain,Heavy Rain,100,2013-07-06 02:35:00
9:55 PM,69.8,69.8,100,30.11,4.0,WNW,9.2,-,N/A,Rain,Heavy Rain,300,2013-07-06 02:55:00
10:15 PM,68.0,68.0,100,30.11,3.0,Calm,Calm,-,N/A,Rain,Heavy Rain,0,2013-07-06 03:15:00
10:35 PM,68.0,68.0,100,30.12,4.0,South,4.6,-,N/A,Rain,Heavy Rain,180,2013-07-06 03:35:00
10:55 PM,68.0,68.0,100,30.13,3.0,SW,3.5,-,N/A,Rain,Heavy Rain,230,2013-07-06 03:55:00
11:15 PM,68.0,68.0,100,30.13,5.0,Calm,Calm,-,N/A,Rain,Rain,0,2013-07-06 04:15:00
11:35 PM,68.0,68.0,100,30.13,10.0,Calm,Calm,-,N/A,Rain,Light Rain,0,2013-07-06 04:35:00
11:55 PM,68.0,68.0,100,30.11,10.0,Calm,Calm,-,N/A,,Mostly Cloudy,0,2013-07-06 04:55:00